Location: Contre
(49.7477°N, 2.0963°E)
Time: 21:01:05
(UTC+00:00)

ATLAS CENTAUR R/B - Pass Details

Date: 03 February 2023
Orbit: 450 x 653 km, 64.7° (Epoch: 19 March)

Event Time Altitude Azimuth Distance (km) Brightness Sun altitude
Rises 17:14:48 0° 221° (SW) 2,978 6.3 -4.6°
Reaches altitude 10° 17:17:08 10° 223° (SW) 2,060 5.4 -5.0°
Maximum altitude 17:21:50 81° 310° (NW) 654 1.8 -5.7°
Drops below altitude 10° 17:26:23 10° 39° (NE) 1,988 3.7 -6.4°
Enters shadow 17:27:42 - 40° (NE) 2,505 4.2 -6.6°
